ONEWEB-0137, 47283

Orbit data source: Space-Track

ONEWEB-0137, 47283 is a payload satellite owned by One Web (UK) in LEO that was launched on Fri, 18 Dec 2020 UTC via a SOYUZ-2-1B launch vehicle from the Vostochny Cosmodrome (VOSTO). Payload-class satellites include a variety of spacecraft equipped with specific instruments for various scientific and technological missions. These include communications satellites like Starlink; space stations such as the ISS; scientific satellites like the Hubble; Earth observation satellites from companies like Planet Labs, Umbra, and HawkEye 360; GPS; miniature CubeSats for education and research; and military/defense satellites.

Loading next visibility...
Identifier
47283, 2020-100AB
Orbit
LEO
Country
Flag of UKUK
Related business
Manufacturer
One Web
Mission
Operational Commercial Communications
Bus & Motor
ARROW, Unknown motor
Mass
148 kg wet, ~140 kg dry
Launch date (UTC)
2020-12-18 (5 years ago)
Launch vehicle
SOYUZ-2-1B
Launch site
Vostochny Cosmodrome (VOSTO)
Object type
Payload
Rocket body
Debris
Shape & HBR
Trap Box + 2 Pan, 6.7 m
Radar Cross Section
3.464 m², Large (>1 m²)

Expand to show TLE details & history
Last TLE update: 5 hours ago

TLE from 5 hours ago
0 ONEWEB-0137
1 47283U 20100AB  26095.49519247  .00000363  00000-0  97272-3 0  9992
2 47283  87.9020   5.0910 0001647  78.7154 281.4159 13.12444508255034
Epoch: 2026-04-05T11:53Z
TLE epoch observation values (Epoch: 2026-04-05T11:53:04.629Z)
Latitude
-0.00007°
Longitude
-6.97809°
Altitude
1,216.361 km
Speed
7.246 km/s
True Right ascension
00h 20m 21s
True Declination
0° 00' 00"
Sunlit
Object was in daylight at epoch
Visualization orbit readout
Latitude
Unknown
Longitude
Unknown
Altitude
Unknown
Speed
Unknown
Apparent Right ascension
Unknown
Apparent Declination
Unknown
Sunlit
N/A
Visualization observer readout
Local Sidereal Time
22:46:14
Azimuth
Unknown
Elevation
Unknown
Doppler factor
Unknown
Orbital elements
Apogee altitude
1,212.084 km
Perigee altitude
1,209.584 km
Semi-major axis
7,588.971 km
Eccentricity
0.00016
Inclination
87.902°
RAAN
5.091°
Arg. of periapsis
78.7154°
True anomaly
281.3974°
Mean anomaly
281.4159°
Eccentric anomaly
281.40665°
Mean motion
3.28298 °/min
Orbital period
109.66 mins
BSTAR
0.00097272
Loading maneuver chart data...
Computing Atmospheric mass density...
Loading historical data...
Loading historical data...
Loading historical data...
Loading historical data...
Loading historical data...
Loading historical data...
Loading historical data...

Documentation

Showing up to 5 results
|